Regional Weather Roundup
Issued by NWS State College, PA

Home | Current Version | Previous Version | Graphics & Text | Print | Product List | Glossary On
Versions: 1 2 3 4 5 6 7 8 9 10 11 12 13 14 15 16 17 18 19 20 21 22 23 24 25 26 27 28 29 30 31 32 33 34 35 36 37 38 39 40 41 42 43 44 45 46 47 48 49 50
000
ASUS41 KCTP 300303
RWRCTP

REGIONAL WEATHER ROUNDUP
NATIONAL WEATHER SERVICE STATE COLLEGE PA
1100 PM EDT WED JUL 29 2015

Note: "fair" indicates few or no clouds below 12,000 feet with no
significant weather and/or obstructions to visibility.

* = STATION THAT DOES NOT REPORT PRECIPITATION /E.G. RAIN...SNOW...ETC/
    THUNDER OR FOG.

PAZ002>004-007>009-013>016-020>023-029>032-300400-
WESTERN PENNSYLVANIA

CITY           SKY/WX    TMP DP  RH WIND       PRES   REMARKS
ERIE           CLOUDY    80  65  59 SW7       29.89R
MEADVILLE      LGT RAIN  79  66  64 S5        29.94R
FRANKLIN*      CLOUDY    75  64  69 SW5       29.96S
NEW CASTLE     FAIR      78  72  82 CALM      29.94S
BEAVER COUNTY  NOT AVBL
BUTLER*        PTCLDY    73  70  88 CALM      29.97R
PITTSBURGH INT MOCLDY    81  70  69 SW3       29.95S
PITTSBURGH     PTCLDY    82  65  56 SW3       29.95S
INDIANA*       MOCLDY    75  72  88 SE5       30.00S
LATROBE        NOT AVBL
WASHINGTON CO* NOT AVBL
$$

PAZ004>006-010>012-017>019-024>028-033>037-041-042-045-046-049>053-300400-
CENTRAL PENNSYLVANIA

CITY           SKY/WX    TMP DP  RH WIND       PRES   REMARKS
BRADFORD       MOCLDY    72  66  81 SE3       29.98F
DUBOIS         MOCLDY    78  69  73 S3        29.97S
CLEARFIELD     MOCLDY    72  69  90 CALM      29.97S
JOHNSTOWN      PTCLDY    74  68  81 S9        30.02S
ALTOONA        PTCLDY    74  70  87 S3        29.99S
STATE COLLEGE  MOCLDY    75  71  86 CALM      29.96S
WILLIAMSPORT   CLEAR     76  69  79 N3        29.91S
SELINSGROVE    PTCLDY    74  72  93 CALM      29.93S
FT INDIANTOWN  CLEAR     75  73  93 VRB1      29.95S
CAPITAL CITY   CLEAR     81  72  74 SE3       29.94S
HARRISBURG     PTCLDY    80  73  79 S6        29.93S
YORK           CLEAR     77  72  84 CALM      29.96R
$$

PAZ038>040-043-044-047-048-054-055-060>062-067>071-300400-
EASTERN PENNSYLVANIA

CITY           SKY/WX    TMP DP  RH WIND       PRES   REMARKS
SCRANTON       CLEAR     78  67  68 SW5       29.96R
MOUNT POCONO     N/A    N/A N/A N/A MISG      30.02S
ALLENTOWN      CLEAR     80  71  74 SW9       29.95S
QUAKERTOWN*    CLEAR     77  72  83 SW5       29.97S
READING        CLEAR     80  72  76 S3        29.95R
LANCASTER      CLEAR     79  74  84 S6        29.95S
COATESVILLE    PTCLDY    75  75 100 CALM      29.98F
POTTSTOWN      CLEAR     79  73  82 S3        29.97F
BLUE BELL      CLEAR     79  73  83 SW3       29.96S
DOYLESTOWN     CLEAR     77  73  87 S5        29.95F
WILLOW GROVE   NOT AVBL
NORTH PHILA    CLEAR     82  70  66 SW7       29.96F
PHILADELPHIA   MOCLDY    82  73  74 S8        29.95F
$$


USA.gov is the U.S. government's official web portal to all federal, state and local government web resources and services.